Nebraska City, NE

3:55 AM CST on February 06, 2016 (GMT -0600)
Nebraska City Municipal

Weather History for KAFK - March, 2013

Change the Weather History Date:

Sunday, March 10, 2013

  Actual Average (KSDA) Record (KSDA)
Temperature  
Mean Temperature 32 °F -  
Max Temperature 39 °F 50 °F 77 °F (1955)
Min Temperature 23 °F 27 °F -2 °F (1998)
Degree Days  
Heating Degree Days 34    
Moisture  
Dew Point 29 °F    
Average Humidity 96    
Maximum Humidity 100    
Minimum Humidity 90    
Precipitation  
Precipitation 0.02 in - - ()
Sea Level Pressure  
Sea Level Pressure 29.80 in    
Wind  
Wind Speed 21 mph (North)    
Max Wind Speed 29 mph    
Max Gust Speed 37 mph    
Visibility 3 miles    
Events Rain , Snow    
Averages and records for this station are not official NWS values.
T = Trace of Precipitation, MM = Missing Value Source: NWS Daily Summary

Daily Weather History Graph

Daily Weather History Graph

Search for Another Location

Airport or City:

Trip Planner

Search our weather history database for the weather conditions in past years. The results will help you decide how hot, cold, wet, or windy it might be!

Date:

Astronomy

Mar. 10, 2013 Rise Set
Actual Time 7:42 AM CDT 7:25 PM CDT
Civil Twilight 7:15 AM CDT 7:52 PM CDT
Nautical Twilight 6:43 AM CDT 8:24 PM CDT
Astronomical Twilight 6:12 AM CDT 8:56 PM CDT
Moon 6:43 AM CDT (3/10) 6:34 PM CDT (3/10)
Length of Visible Light 12h 36m
Length of Day
11h 42m
Waning Crescent, 2% of the Moon is Illuminated
Mar 10
Waning Crescent
Mar 11
New
Mar 19
First Quarter
Mar 27
Full
Apr 2
Last Quarter

Hourly Weather History & Observations

Time (CDT) Temp. Windchill Dew Point Humidity Pressure Visibility Wind Dir Wind Speed Gust Speed Precip Events Conditions
12:15 AM 39.7 °F 31.5 °F 39.6 °F 99% 29.66 in 4.0 mi NNE 15.0 mph 20.7 mph 0.01 in Rain Rain
12:35 AM 39.2 °F 30.2 °F 38.8 °F 99% 29.67 in 7.0 mi North 17.3 mph - 0.01 in   Light Drizzle
12:55 AM 37.8 °F 28.0 °F 37.6 °F 99% 29.65 in 7.0 mi North 18.4 mph 25.3 mph 0.01 in   Overcast
1:15 AM 37.4 °F 27.8 °F 37.2 °F 99% 29.67 in 5.0 mi North 17.3 mph - N/A   Overcast
1:35 AM 37.0 °F 28.1 °F 36.9 °F 99% 29.67 in 5.0 mi North 15.0 mph - N/A   Overcast
1:55 AM 36.9 °F 27.1 °F 36.7 °F 99% 29.68 in 5.0 mi North 17.3 mph 20.7 mph N/A   Drizzle
3:15 AM 36.5 °F 25.7 °F 36.5 °F 100% 29.66 in 2.5 mi North 20.7 mph 31.1 mph N/A Rain Light Rain
3:35 AM 36.1 °F 24.4 °F 36.0 °F 99% 29.67 in 3.0 mi North 24.2 mph 32.2 mph 0.01 in Rain Rain
3:55 AM 35.8 °F 23.0 °F 35.6 °F 99% 29.66 in 4.0 mi NNE 28.8 mph 34.5 mph 0.01 in Rain Light Rain
4:15 AM 35.4 °F 23.5 °F 34.9 °F 98% 29.64 in 5.0 mi NNE 24.2 mph 34.5 mph N/A   Light Drizzle
4:35 AM 35.2 °F 23.8 °F 34.7 °F 98% 29.68 in 7.0 mi North 21.9 mph 31.1 mph N/A   Overcast
4:55 AM 34.7 °F 22.5 °F 34.2 °F 98% 29.67 in 7.0 mi North 24.2 mph 31.1 mph N/A Rain Light Rain
5:15 AM 34.7 °F 22.5 °F 33.8 °F 97% 29.67 in 7.0 mi North 24.2 mph 33.4 mph N/A Rain Rain
5:35 AM 34.3 °F 22.6 °F 33.8 °F 98% 29.68 in 7.0 mi North 21.9 mph - N/A   Light Drizzle
5:55 AM 34.2 °F 22.6 °F 33.8 °F 99% 29.72 in 7.0 mi North 20.7 mph 27.6 mph N/A   Overcast
6:15 AM 34.2 °F 23.3 °F 33.3 °F 97% 29.73 in 7.0 mi North 18.4 mph 24.2 mph N/A Rain Light Rain
6:35 AM 33.8 °F 21.9 °F 32.9 °F 96% 29.72 in 5.0 mi North 21.9 mph 28.8 mph N/A   Light Drizzle
7:15 AM 33.1 °F 21.2 °F 32.2 °F 96% 29.73 in 7.0 mi North 20.7 mph 28.8 mph N/A   Overcast
7:35 AM 32.9 °F 20.1 °F 32.0 °F 96% 29.73 in 7.0 mi North 24.2 mph 29.9 mph N/A   Overcast
7:55 AM 32.7 °F 19.6 °F 32.0 °F 97% 29.74 in 7.0 mi North 25.3 mph 32.2 mph N/A   Overcast
8:15 AM 32.5 °F 20.2 °F 31.8 °F 97% 29.76 in 7.0 mi North 21.9 mph 28.8 mph N/A   Overcast
8:35 AM 32.2 °F 19.4 °F 31.6 °F 98% 29.76 in 5.0 mi North 23.0 mph 32.2 mph N/A   Overcast
8:55 AM 32.0 °F 19.2 °F 31.8 °F 99% 29.77 in 4.0 mi North 23.0 mph 31.1 mph N/A   Overcast
9:15 AM 32.0 °F 19.8 °F 31.5 °F 98% 29.78 in 4.0 mi North 20.7 mph 26.5 mph N/A   Overcast
9:35 AM 32.0 °F 19.5 °F 31.3 °F 97% 29.75 in 2.5 mi North 21.9 mph 32.2 mph N/A   Overcast
9:55 AM 32.0 °F 18.9 °F 31.3 °F 97% 29.78 in 2.0 mi North 24.2 mph 31.1 mph N/A   Overcast
10:15 AM 32.0 °F 19.5 °F 31.1 °F 96% 29.79 in 1.8 mi North 21.9 mph 28.8 mph N/A   Overcast
10:35 AM 31.8 °F 20.2 °F 31.1 °F 97% 29.80 in 1.8 mi North 18.4 mph 27.6 mph N/A Snow Light Snow
10:55 AM 31.6 °F 19.3 °F 31.1 °F 98% 29.80 in 2.0 mi North 20.7 mph 27.6 mph N/A   Overcast
11:15 AM 31.1 °F 18.9 °F 30.7 °F 99% 29.79 in 1.8 mi North 19.6 mph 31.1 mph N/A   Overcast
11:35 AM 31.1 °F 18.9 °F 30.6 °F 98% 29.81 in 2.0 mi North 19.6 mph 27.6 mph N/A Snow Light Snow
11:55 AM 30.9 °F 18.7 °F 30.2 °F 97% 29.81 in 1.2 mi North 19.6 mph 23.0 mph N/A Snow Light Snow
12:15 PM 30.2 °F 17.1 °F 29.5 °F 97% 29.81 in 1.2 mi North 21.9 mph 27.6 mph N/A Snow Light Snow
12:35 PM 30.0 °F 16.6 °F 29.3 °F 97% 29.82 in 1.0 mi North 23.0 mph 27.6 mph N/A Snow Light Snow
12:55 PM 30.0 °F 16.9 °F 29.1 °F 96% 29.81 in 0.8 mi North 21.9 mph 32.2 mph N/A Snow Light Snow
1:15 PM 30.0 °F 15.7 °F 29.1 °F 96% 29.81 in 0.5 mi North 26.5 mph 34.5 mph N/A Snow Snow
1:35 PM 29.7 °F 15.8 °F 28.9 °F 97% 29.80 in 0.2 mi North 24.2 mph 32.2 mph N/A Snow Snow
1:55 PM 29.3 °F 15.6 °F 28.9 °F 99% 29.80 in 0.2 mi North 23.0 mph 29.9 mph N/A Snow Snow
2:15 PM 29.3 °F 15.9 °F 28.4 °F 96% 29.80 in 0.5 mi North 21.9 mph 28.8 mph N/A Snow Snow
2:35 PM 29.3 °F 16.6 °F 28.0 °F 95% 29.80 in 0.5 mi North 19.6 mph 32.2 mph N/A Snow Snow
2:55 PM 29.1 °F 15.4 °F 28.0 °F 96% 29.79 in 0.2 mi North 23.0 mph 31.1 mph N/A Snow Snow
3:15 PM 29.1 °F 15.1 °F 28.0 °F 96% 29.80 in 0.8 mi North 24.2 mph 29.9 mph N/A Snow Light Snow
3:35 PM 29.1 °F 14.2 °F 27.9 °F 95% 29.81 in 0.8 mi North 27.6 mph 36.8 mph N/A Snow Light Snow
3:55 PM 28.8 °F 15.5 °F 27.5 °F 95% 29.82 in 0.8 mi North 20.7 mph 35.7 mph N/A Snow Light Snow
4:15 PM 28.8 °F 14.9 °F 27.5 °F 95% 29.83 in 1.0 mi NNW 23.0 mph 28.8 mph N/A Snow Light Snow
4:35 PM 27.7 °F 12.6 °F 26.6 °F 96% 29.83 in 0.8 mi NNW 26.5 mph 34.5 mph N/A Snow Light Snow
4:55 PM 27.5 °F 13.5 °F 26.2 °F 95% 29.84 in 0.8 mi NNW 21.9 mph 32.2 mph N/A Snow Light Snow
5:15 PM 27.5 °F 13.5 °F 26.4 °F 96% 29.84 in 1.2 mi NNW 21.9 mph 27.6 mph N/A Snow Light Snow
5:35 PM 27.1 °F 12.1 °F 25.7 °F 94% 29.85 in 1.0 mi NNW 25.3 mph 31.1 mph N/A Snow Light Snow
5:55 PM 26.6 °F 12.7 °F 25.5 °F 96% 29.85 in 0.8 mi NNW 20.7 mph 27.6 mph N/A Snow Light Snow
6:15 PM 26.2 °F 11.2 °F 25.0 °F 95% 29.85 in 0.8 mi NNW 24.2 mph 29.9 mph N/A Snow Light Snow
6:35 PM 25.7 °F 10.8 °F 24.8 °F 96% 29.86 in 0.8 mi NNW 23.0 mph 29.9 mph N/A Snow Light Snow
6:55 PM 25.5 °F 10.3 °F 24.6 °F 96% 29.86 in 0.5 mi NNW 24.2 mph 31.1 mph N/A Snow Snow
7:15 PM 25.5 °F 10.9 °F 24.4 °F 96% 29.87 in 0.8 mi NNW 21.9 mph 31.1 mph N/A Snow Light Snow
7:35 PM 25.3 °F 9.4 °F 23.7 °F 94% 29.87 in 2.0 mi NNW 26.5 mph 31.1 mph N/A Snow Light Snow
7:55 PM 24.8 °F 10.0 °F 23.4 °F 94% 29.87 in 2.0 mi NNW 21.9 mph 31.1 mph N/A Snow Light Snow
8:15 PM 24.8 °F 9.6 °F 23.2 °F 94% 29.88 in 1.8 mi NNW 23.0 mph 32.2 mph N/A Snow Light Snow
8:35 PM 24.6 °F 8.8 °F 22.8 °F 93% 29.88 in 3.0 mi NNW 25.3 mph 31.1 mph N/A Snow Light Snow
8:55 PM 24.6 °F 9.1 °F 22.8 °F 93% 29.88 in 4.0 mi NNW 24.2 mph 28.8 mph N/A Snow Light Snow
9:15 PM 24.8 °F 8.4 °F 23.0 °F 93% 29.88 in 3.0 mi NNW 27.6 mph 31.1 mph N/A   Mostly Cloudy
9:35 PM 24.8 °F 9.3 °F 23.0 °F 93% 29.89 in 3.0 mi NNW 24.2 mph 32.2 mph N/A Snow Light Snow
9:55 PM 24.8 °F 10.0 °F 23.0 °F 93% 29.90 in 4.0 mi NNW 21.9 mph 27.6 mph N/A Snow Light Snow
10:15 PM 24.8 °F 9.6 °F 23.0 °F 93% 29.90 in 5.0 mi NNW 23.0 mph 27.6 mph N/A   Overcast
10:35 PM 24.8 °F 9.6 °F 23.0 °F 93% 29.91 in 5.0 mi NNW 23.0 mph 26.5 mph N/A Snow Light Snow
10:55 PM 24.8 °F 9.0 °F 22.8 °F 92% 29.91 in 5.0 mi NNW 25.3 mph 29.9 mph N/A Snow Light Snow
11:15 PM 25.2 °F 10.8 °F 23.0 °F 91% 29.91 in 7.0 mi NNW 20.7 mph 27.6 mph N/A   Overcast
11:35 PM 24.8 °F 10.0 °F 23.0 °F 93% 29.91 in 4.0 mi NNW 21.9 mph 28.8 mph N/A Snow Light Snow
11:55 PM 24.6 °F 10.9 °F 23.0 °F 94% 29.91 in 4.0 mi NNW 18.4 mph 26.5 mph N/A Snow Light Snow
12:15 AM 24.6 °F 9.4 °F 22.1 °F 90% 29.90 in 4.0 mi NNW 23.0 mph 29.9 mph N/A Snow Light Snow
12:35 AM 24.1 °F 9.0 °F 22.5 °F 94% 29.90 in 4.0 mi NNW 21.9 mph 27.6 mph N/A Snow Light Snow
12:55 AM 23.9 °F 9.5 °F 22.1 °F 93% 29.90 in 2.5 mi NNW 19.6 mph 28.8 mph N/A Snow Light Snow